Location: Austin
(30.3000°N, 97.7500°W)
Time: 04:06:12
(UTC-05:00)

CZ-2C R/B - Pass Details

Date: 01 October 2024
Orbit: 451 x 495 km, 97.8° (Epoch: 06 October)

Event Time Altitude Azimuth Distance (km) Brightness Sun altitude
Rises 19:50:05 0° 162° (SSE) 2,451 5.9 -8.3°
Reaches altitude 10° 19:52:07 10° 159° (SSE) 1,579 4.9 -8.7°
Maximum altitude 19:55:28 65° 77° (ENE) 501 2.4 -9.4°
Drops below altitude 10° 19:58:50 10° 355° (N) 1,586 5.3 -10.2°
Sets 20:00:52 0° 352° (N) 2,463 6.3 -10.6°
